Torna al catalogo

TIANPING 3A-01

AttivoScienzaSSO
NORAD 61614·PAYLOAD·🇨🇳 China

Lanciato Oct 22, 2024 da Taiyuan Satellite Launch Center

Loading…

Prossimi Passaggi (prossime 24 ore)

TLE

AggiornatoSource: Space-Track

Epoca: Sep 14, 2026, 15:24 UTC

1 61614U 24189A   26257.64200204  .00002209  00000-0  17708-3 0  9991
2 61614  97.5137 274.9853 0003336 112.9351 247.2226 15.01097892103907

Traccia TIANPING 3A-01 in tempo reale con AllMySat

Download on the App Store